QPF
0.00 0.00 0.00 0.00 0.00 0.01 0.00 0.00 0.00 0.00 0.00 0.00 0.00 0.00 0.00 0.00 0.00 0.00 0.00 0.00 0.00 0.00 0.00 0.01 0.01 0.02 0.02 0.03 0.04 0.04 0.03 0.03 0.04 0.04 0.04 0.04 0.04 0.05 0.05 0.05 0.04 0.05 0.04 0.03
0.00 0.00 0.00 0.00 0.00 0.00 0.00 0.00 0.00 0.00 0.00 0.00 0.00 0.01 0.01 0.00 0.00 0.00 0.00 0.00 0.00 0.00 0.00 0.00 0.00 0.00 0.01 0.02 0.02 0.03 0.04 0.03 0.03 0.04 0.04 0.04 0.04 0.03 0.03 0.03 0.04 0.03 0.03 0.03
0.00 0.00 0.00 0.00 0.00 0.00 0.00 0.00 0.00 0.00 0.00 0.00 0.00 0.02 0.03 0.01 0.00 0.00 0.00 0.00 0.00 0.00 0.00 0.00 0.00 0.00 0.00 0.01 0.02 0.02 0.03 0.04 0.04 0.05 0.04 0.04 0.04 0.03 0.04 0.04 0.05 0.03 0.03 0.03
0.00 0.00 0.00 0.00 0.00 0.00 0.00 0.00 0.00 0.00 0.00 0.00 0.00 0.02 0.02 0.01 0.00 0.00 0.00 0.00 0.00 0.00 0.00 0.00 0.00 0.00 0.00 0.00 0.01 0.02 0.02 0.03 0.03 0.03 0.04 0.04 0.03 0.03 0.03 0.04 0.03 0.03 0.02 0.03
0.00 0.00 0.00 0.00 0.00 0.00 0.00 0.00 0.00 0.00 0.00 0.00 0.00 0.01 0.02 0.01 0.01 0.00 0.00 0.00 0.00 0.00 0.00 0.00 0.00 0.00 0.00 0.00 0.00 0.01 0.01 0.02 0.02 0.02 0.03 0.04 0.03 0.04 0.04 0.03 0.03 0.05 0.03 0.03
0.00 0.00 0.00 0.00 0.00 0.00 0.00 0.00 0.00 0.00 0.00 0.00 0.00 0.00 0.03 0.04 0.01 0.00 0.00 0.00 0.00 0.00 0.00 0.00 0.00 0.00 0.00 0.00 0.00 0.00 0.01 0.01 0.02 0.02 0.03 0.04 0.04 0.04 0.05 0.05 0.06 0.06 0.05 0.05
0.00 0.00 0.00 0.00 0.00 0.00 0.00 0.00 0.00 0.00 0.00 0.01 0.00 0.00 0.01 0.01 0.00 0.00 0.00 0.00 0.00 0.00 0.00 0.00 0.01 0.01 0.01 0.00 0.00 0.00 0.00 0.01 0.02 0.02 0.03 0.03 0.03 0.03 0.04 0.04 0.05 0.07 0.06 0.05
0.00 0.00 0.00 0.00 0.00 0.00 0.00 0.00 0.01 0.01 0.01 0.01 0.00 0.00 0.00 0.00 0.00 0.00 0.00 0.00 0.00 0.00 0.01 0.01 0.02 0.01 0.01 0.01 0.01 0.00 0.01 0.01 0.01 0.02 0.03 0.03 0.03 0.02 0.03 0.04 0.04 0.05 0.04 0.03
0.00 0.00 0.00 0.00 0.00 0.00 0.00 0.00 0.00 0.01 0.01 0.02 0.02 0.00 0.00 0.00 0.01 0.01 0.00 0.00 0.00 0.00 0.00 0.01 0.01 0.02 0.03 0.01 0.01 0.01 0.01 0.02 0.02 0.02 0.03 0.03 0.02 0.03 0.03 0.03 0.03 0.03 0.03 0.03
0.00 0.00 0.00 0.00 0.00 0.00 0.00 0.00 0.00 0.01 0.01 0.01 0.02 0.02 0.01 0.01 0.03 0.03 0.01 0.01 0.01 0.01 0.01 0.01 0.01 0.02 0.03 0.02 0.01 0.01 0.02 0.02 0.03 0.02 0.02 0.02 0.03 0.02 0.02 0.03 0.03 0.03 0.02 0.02
0.00 0.00 0.00 0.00 0.00 0.00 0.00 0.00 0.01 0.01 0.01 0.01 0.01 0.02 0.04 0.02 0.03 0.02 0.01 0.01 0.00 0.00 0.01 0.01 0.02 0.02 0.02 0.02 0.02 0.03 0.02 0.03 0.03 0.02 0.03 0.03 0.03 0.03 0.03 0.03 0.02 0.02 0.02 0.03
0.00 0.00 0.00 0.00 0.00 0.00 0.00 0.00 0.01 0.01 0.01 0.01 0.01 0.01 0.02 0.02 0.02 0.03 0.04 0.02 0.01 0.00 0.00 0.01 0.01 0.02 0.02 0.03 0.03 0.03 0.03 0.03 0.02 0.02 0.03 0.03 0.04 0.04 0.03 0.03 0.03 0.03 0.03 0.03
0.00 0.00 0.00 0.00 0.00 0.00 0.00 0.00 0.00 0.01 0.01 0.01 0.02 0.02 0.01 0.01 0.02 0.02 0.03 0.01 0.01 0.00 0.00 0.01 0.01 0.01 0.01 0.02 0.03 0.04 0.04 0.04 0.03 0.03 0.04 0.04 0.03 0.03 0.02 0.02 0.02 0.02 0.02 0.03
0.00 0.00 0.00 0.00 0.00 0.00 0.00 0.00 0.00 0.00 0.01 0.01 0.02 0.06 0.02 0.02 0.03 0.04 0.02 0.00 0.00 0.00 0.00 0.00 0.00 0.01 0.01 0.02 0.02 0.03 0.04 0.03 0.04 0.04 0.04 0.04 0.03 0.02 0.02 0.02 0.02 0.02 0.03 0.03
0.00 0.00 0.00 0.00 0.00 0.00 0.00 0.00 0.00 0.00 0.01 0.01 0.02 0.06 0.03 0.04 0.05 0.02 0.01 0.00 0.00 0.00 0.00 0.00 0.00 0.00 0.01 0.01 0.01 0.01 0.02 0.02 0.03 0.03 0.03 0.02 0.03 0.02 0.02 0.03 0.03 0.02 0.02 0.03
0.00 0.00 0.00 0.00 0.00 0.00 0.00 0.00 0.00 0.00 0.00 0.01 0.01 0.02 0.02 0.02 0.02 0.01 0.01 0.00 0.00 0.00 0.01 0.00 0.00 0.01 0.01 0.02 0.02 0.02 0.01 0.00 0.01 0.01 0.01 0.01 0.01 0.01 0.02 0.02 0.02 0.02 0.02 0.03
0.00 0.00 0.00 0.00 0.00 0.00 0.00 0.00 0.00 0.00 0.00 0.01 0.01 0.00 0.01 0.02 0.01 0.01 0.01 0.01 0.00 0.01 0.01 0.00 0.00 0.01 0.01 0.02 0.03 0.02 0.01 0.00 0.00 0.01 0.01 0.01 0.01 0.01 0.02 0.02 0.02 0.02 0.02 0.03
0.00 0.00 0.00 0.00 0.00 0.00 0.00 0.00 0.00 0.00 0.00 0.00 0.01 0.00 0.00 0.01 0.01 0.02 0.02 0.01 0.01 0.02 0.01 0.01 0.01 0.01 0.02 0.02 0.03 0.03 0.01 0.00 0.01 0.00 0.01 0.01 0.01 0.02 0.02 0.02 0.02 0.02 0.03 0.03
0.00 0.00 0.00 0.00 0.00 0.00 0.00 0.00 0.00 0.00 0.01 0.01 0.01 0.01 0.01 0.01 0.01 0.01 0.03 0.05 0.03 0.01 0.01 0.01 0.01 0.01 0.02 0.02 0.03 0.04 0.02 0.01 0.01 0.01 0.00 0.01 0.02 0.02 0.02 0.02 0.03 0.04 0.04 0.04
0.00 0.00 0.00 0.00 0.00 0.01 0.01 0.00 0.00 0.01 0.01 0.02 0.03 0.02 0.01 0.01 0.02 0.03 0.04 0.06 0.03 0.02 0.04 0.05 0.03 0.03 0.04 0.05 0.05 0.06 0.04 0.02 0.01 0.01 0.01 0.01 0.01 0.02 0.03 0.04 0.05 0.06 0.06 0.07
0.02 0.01 0.00 0.00 0.00 0.01 0.00 0.00 0.00 0.01 0.02 0.01 0.02 0.02 0.02 0.03 0.06 0.05 0.04 0.05 0.05 0.04 0.04 0.06 0.08 0.07 0.09 0.12 0.11 0.12 0.12 0.07 0.03 0.02 0.01 0.01 0.02 0.03 0.05 0.06 0.06 0.07 0.07 0.08
0.02 0.01 0.01 0.01 0.01 0.02 0.01 0.00 0.01 0.02 0.03 0.02 0.02 0.02 0.03 0.04 0.05 0.05 0.06 0.06 0.10 0.10 0.06 0.05 0.06 0.08 0.07 0.13 0.18 0.14 0.15 0.10 0.03 0.02 0.02 0.03 0.03 0.02 0.04 0.07 0.07 0.07 0.06 0.06
0.01 0.01 0.02 0.01 0.02 0.01 0.01 0.01 0.01 0.02 0.04 0.03 0.02 0.02 0.02 0.04 0.04 0.05 0.05 0.06 0.11 0.13 0.10 0.08 0.05 0.06 0.05 0.07 0.12 0.15 0.09 0.06 0.03 0.02 0.02 0.03 0.03 0.03 0.05 0.06 0.06 0.06 0.07 0.07
0.01 0.01 0.01 0.01 0.02 0.01 0.01 0.00 0.01 0.02 0.04 0.04 0.03 0.01 0.01 0.04 0.04 0.04 0.04 0.04 0.07 0.09 0.09 0.06 0.05 0.05 0.04 0.04 0.06 0.07 0.07 0.05 0.03 0.02 0.02 0.01 0.02 0.02 0.03 0.03 0.05 0.06 0.07 0.08
0.01 0.00 0.01 0.01 0.01 0.01 0.00 0.00 0.00 0.01 0.02 0.03 0.04 0.02 0.02 0.02 0.03 0.04 0.04 0.05 0.06 0.04 0.04 0.04 0.04 0.04 0.03 0.03 0.03 0.04 0.04 0.04 0.03 0.02 0.01 0.01 0.02 0.02 0.02 0.02 0.03 0.04 0.05 0.06
0.00 0.00 0.01 0.01 0.01 0.01 0.01 0.00 0.00 0.00 0.01 0.02 0.03 0.02 0.02 0.02 0.03 0.05 0.05 0.05 0.05 0.03 0.03 0.03 0.03 0.03 0.04 0.03 0.03 0.04 0.04 0.04 0.04 0.02 0.01 0.02 0.02 0.02 0.02 0.02 0.02 0.03 0.04 0.05
MSLP
1006.23 1006.95 1007.56 1008.06 1008.50 1008.95 1009.47 1010.10 1010.87 1011.75 1012.69 1013.60 1014.42 1015.07 1015.51 1015.73 1015.75 1015.61 1015.37 1015.07 1014.75 1014.44 1014.15 1013.87 1013.62 1013.38 1013.17 1013.01 1012.91 1012.91 1013.00 1013.20 1013.49 1013.85 1014.26 1014.69 1015.11 1015.49 1015.83 1016.11 1016.35 1016.54 1016.68 1016.77
1007.16 1007.83 1008.36 1008.78 1009.13 1009.48 1009.91 1010.46 1011.15 1011.96 1012.84 1013.70 1014.47 1015.08 1015.50 1015.70 1015.71 1015.57 1015.34 1015.06 1014.76 1014.48 1014.22 1013.97 1013.74 1013.51 1013.31 1013.14 1013.02 1012.97 1013.02 1013.17 1013.40 1013.71 1014.06 1014.43 1014.79 1015.14 1015.45 1015.72 1015.96 1016.17 1016.35 1016.50
1008.09 1008.65 1009.06 1009.37 1009.61 1009.87 1010.21 1010.68 1011.31 1012.06 1012.88 1013.70 1014.43 1015.01 1015.41 1015.59 1015.59 1015.45 1015.22 1014.96 1014.69 1014.43 1014.20 1013.98 1013.78 1013.57 1013.38 1013.21 1013.08 1013.01 1013.03 1013.12 1013.30 1013.55 1013.84 1014.14 1014.44 1014.73 1014.99 1015.24 1015.47 1015.68 1015.89 1016.08
1008.94 1009.37 1009.66 1009.84 1009.98 1010.15 1010.42 1010.85 1011.43 1012.15 1012.94 1013.73 1014.44 1015.00 1015.37 1015.54 1015.53 1015.39 1015.16 1014.90 1014.64 1014.40 1014.18 1013.99 1013.80 1013.61 1013.42 1013.25 1013.11 1013.02 1013.00 1013.06 1013.19 1013.37 1013.59 1013.83 1014.06 1014.27 1014.48 1014.68 1014.88 1015.09 1015.31 1015.53
1009.71 1010.00 1010.15 1010.22 1010.28 1010.39 1010.62 1011.02 1011.60 1012.31 1013.10 1013.88 1014.58 1015.14 1015.50 1015.65 1015.64 1015.49 1015.25 1014.99 1014.72 1014.48 1014.26 1014.06 1013.86 1013.67 1013.47 1013.29 1013.13 1013.01 1012.96 1012.97 1013.04 1013.17 1013.32 1013.48 1013.64 1013.78 1013.92 1014.06 1014.22 1014.40 1014.62 1014.86
1010.39 1010.54 1010.59 1010.57 1010.56 1010.64 1010.86 1011.27 1011.86 1012.59 1013.39 1014.19 1014.90 1015.45 1015.81 1015.96 1015.94 1015.78 1015.53 1015.25 1014.97 1014.71 1014.47 1014.24 1014.02 1013.80 1013.58 1013.36 1013.16 1013.01 1012.90 1012.86 1012.88 1012.93 1013.02 1013.10 1013.19 1013.26 1013.33 1013.41 1013.51 1013.66 1013.85 1014.09
1010.98 1011.04 1011.00 1010.92 1010.88 1010.95 1011.18 1011.61 1012.23 1012.98 1013.81 1014.62 1015.34 1015.90 1016.27 1016.42 1016.40 1016.23 1015.98 1015.68 1015.37 1015.08 1014.81 1014.55 1014.29 1014.02 1013.75 1013.48 1013.23 1013.01 1012.85 1012.74 1012.69 1012.68 1012.69 1012.71 1012.73 1012.73 1012.73 1012.74 1012.79 1012.88 1013.04 1013.26
1011.51 1011.50 1011.41 1011.31 1011.27 1011.34 1011.60 1012.05 1012.69 1013.47 1014.31 1015.13 1015.86 1016.42 1016.79 1016.95 1016.92 1016.76 1016.50 1016.19 1015.87 1015.55 1015.25 1014.94 1014.63 1014.31 1013.97 1013.63 1013.31 1013.03 1012.79 1012.62 1012.49 1012.42 1012.36 1012.32 1012.27 1012.21 1012.15 1012.10 1012.08 1012.12 1012.23 1012.40
1011.97 1011.94 1011.85 1011.76 1011.72 1011.82 1012.09 1012.56 1013.20 1013.98 1014.81 1015.63 1016.34 1016.90 1017.27 1017.43 1017.42 1017.26 1017.01 1016.70 1016.37 1016.03 1015.69 1015.35 1014.99 1014.61 1014.21 1013.80 1013.41 1013.05 1012.74 1012.49 1012.30 1012.15 1012.04 1011.94 1011.83 1011.72 1011.60 1011.50 1011.42 1011.40 1011.45 1011.57
1012.37 1012.37 1012.31 1012.25 1012.25 1012.36 1012.64 1013.10 1013.73 1014.47 1015.26 1016.04 1016.72 1017.26 1017.62 1017.78 1017.77 1017.63 1017.40 1017.10 1016.77 1016.43 1016.08 1015.70 1015.31 1014.88 1014.42 1013.96 1013.50 1013.07 1012.70 1012.38 1012.12 1011.91 1011.75 1011.59 1011.44 1011.28 1011.12 1010.96 1010.83 1010.75 1010.73 1010.78
1012.71 1012.78 1012.78 1012.77 1012.81 1012.94 1013.22 1013.65 1014.22 1014.90 1015.63 1016.33 1016.96 1017.45 1017.79 1017.95 1017.95 1017.83 1017.62 1017.34 1017.03 1016.70 1016.34 1015.96 1015.54 1015.08 1014.59 1014.09 1013.58 1013.10 1012.67 1012.29 1011.98 1011.73 1011.51 1011.31 1011.12 1010.92 1010.72 1010.52 1010.33 1010.19 1010.10 1010.08
1012.98 1013.15 1013.24 1013.30 1013.38 1013.53 1013.79 1014.17 1014.68 1015.27 1015.90 1016.51 1017.06 1017.50 1017.79 1017.94 1017.96 1017.85 1017.67 1017.42 1017.14 1016.82 1016.48 1016.10 1015.68 1015.21 1014.71 1014.19 1013.66 1013.14 1012.68 1012.26 1011.91 1011.61 1011.35 1011.11 1010.88 1010.65 1010.40 1010.15 1009.92 1009.71 1009.56 1009.46
1013.22 1013.49 1013.68 1013.82 1013.95 1014.12 1014.35 1014.67 1015.09 1015.57 1016.10 1016.61 1017.07 1017.44 1017.70 1017.83 1017.84 1017.76 1017.61 1017.39 1017.14 1016.85 1016.53 1016.16 1015.75 1015.30 1014.81 1014.28 1013.75 1013.23 1012.74 1012.30 1011.91 1011.57 1011.27 1010.99 1010.72 1010.44 1010.15 1009.86 1009.57 1009.31 1009.09 1008.92
1013.42 1013.80 1014.09 1014.31 1014.49 1014.66 1014.87 1015.14 1015.46 1015.85 1016.26 1016.67 1017.04 1017.34 1017.56 1017.67 1017.69 1017.63 1017.50 1017.32 1017.09 1016.83 1016.54 1016.20 1015.81 1015.38 1014.91 1014.41 1013.88 1013.37 1012.87 1012.41 1011.99 1011.62 1011.27 1010.94 1010.62 1010.29 1009.95 1009.60 1009.26 1008.95 1008.67 1008.45
1013.63 1014.10 1014.47 1014.75 1014.97 1015.15 1015.34 1015.55 1015.80 1016.08 1016.40 1016.71 1017.01 1017.25 1017.44 1017.54 1017.57 1017.52 1017.42 1017.26 1017.07 1016.84 1016.57 1016.25 1015.90 1015.50 1015.05 1014.57 1014.07 1013.57 1013.07 1012.59 1012.14 1011.72 1011.31 1010.92 1010.54 1010.14 1009.75 1009.35 1008.96 1008.60 1008.28 1008.01
1013.84 1014.37 1014.80 1015.12 1015.37 1015.56 1015.72 1015.89 1016.07 1016.28 1016.52 1016.76 1016.99 1017.20 1017.36 1017.46 1017.50 1017.48 1017.40 1017.27 1017.11 1016.90 1016.65 1016.36 1016.03 1015.66 1015.24 1014.79 1014.31 1013.81 1013.31 1012.80 1012.31 1011.84 1011.37 1010.91 1010.45 1009.99 1009.53 1009.08 1008.65 1008.25 1007.90 1007.61
1014.06 1014.61 1015.06 1015.40 1015.66 1015.85 1015.99 1016.12 1016.25 1016.41 1016.59 1016.78 1016.98 1017.16 1017.32 1017.43 1017.49 1017.50 1017.45 1017.35 1017.21 1017.02 1016.79 1016.52 1016.21 1015.86 1015.46 1015.02 1014.55 1014.05 1013.54 1013.00 1012.47 1011.93 1011.39 1010.85 1010.31 1009.79 1009.27 1008.78 1008.32 1007.91 1007.55 1007.26
1014.27 1014.80 1015.23 1015.57 1015.81 1015.98 1016.11 1016.21 1016.31 1016.43 1016.57 1016.74 1016.93 1017.11 1017.28 1017.42 1017.52 1017.56 1017.54 1017.48 1017.35 1017.19 1016.97 1016.71 1016.41 1016.06 1015.67 1015.24 1014.76 1014.25 1013.71 1013.14 1012.55 1011.95 1011.34 1010.73 1010.14 1009.55 1009.00 1008.48 1008.02 1007.61 1007.26 1006.99
1014.40 1014.88 1015.28 1015.58 1015.80 1015.95 1016.05 1016.13 1016.21 1016.32 1016.45 1016.62 1016.81 1017.02 1017.21 1017.39 1017.52 1017.61 1017.63 1017.59 1017.49 1017.34 1017.13 1016.87 1016.57 1016.22 1015.83 1015.39 1014.90 1014.37 1013.80 1013.19 1012.56 1011.90 1011.24 1010.58 1009.94 1009.33 1008.76 1008.24 1007.79 1007.41 1007.11 1006.87
1014.43 1014.84 1015.18 1015.44 1015.62 1015.74 1015.83 1015.89 1015.97 1016.08 1016.22 1016.40 1016.62 1016.85 1017.09 1017.31 1017.49 1017.61 1017.67 1017.66 1017.59 1017.44 1017.24 1016.98 1016.67 1016.31 1015.91 1015.45 1014.95 1014.40 1013.81 1013.17 1012.50 1011.81 1011.12 1010.44 1009.78 1009.17 1008.62 1008.14 1007.74 1007.41 1007.16 1006.97
1014.29 1014.63 1014.91 1015.13 1015.28 1015.38 1015.46 1015.53 1015.61 1015.73 1015.90 1016.11 1016.36 1016.63 1016.91 1017.17 1017.39 1017.56 1017.65 1017.67 1017.61 1017.48 1017.27 1017.01 1016.69 1016.32 1015.91 1015.44 1014.93 1014.37 1013.76 1013.11 1012.43 1011.74 1011.05 1010.38 1009.75 1009.18 1008.67 1008.25 1007.91 1007.66 1007.47 1007.34
1013.96 1014.25 1014.49 1014.67 1014.81 1014.91 1014.99 1015.08 1015.19 1015.34 1015.54 1015.78 1016.07 1016.39 1016.71 1017.01 1017.26 1017.46 1017.58 1017.61 1017.57 1017.44 1017.24 1016.97 1016.65 1016.28 1015.86 1015.39 1014.88 1014.32 1013.72 1013.09 1012.43 1011.77 1011.12 1010.49 1009.92 1009.41 1008.98 1008.64 1008.38 1008.20 1008.08 1008.00
1013.46 1013.72 1013.93 1014.10 1014.24 1014.36 1014.47 1014.60 1014.75 1014.95 1015.19 1015.48 1015.81 1016.16 1016.51 1016.83 1017.11 1017.33 1017.46 1017.51 1017.47 1017.35 1017.15 1016.89 1016.57 1016.20 1015.79 1015.34 1014.85 1014.33 1013.76 1013.18 1012.57 1011.96 1011.38 1010.82 1010.33 1009.90 1009.56 1009.31 1009.13 1009.02 1008.96 1008.93
1012.82 1013.06 1013.28 1013.46 1013.63 1013.79 1013.96 1014.14 1014.36 1014.61 1014.91 1015.24 1015.60 1015.98 1016.35 1016.69 1016.97 1017.19 1017.33 1017.38 1017.34 1017.22 1017.03 1016.78 1016.48 1016.14 1015.76 1015.35 1014.90 1014.43 1013.93 1013.41 1012.88 1012.36 1011.85 1011.39 1010.99 1010.65 1010.40 1010.22 1010.12 1010.07 1010.05 1010.03
1012.10 1012.35 1012.58 1012.80 1013.02 1013.25 1013.49 1013.74 1014.03 1014.35 1014.70 1015.07 1015.46 1015.86 1016.23 1016.57 1016.85 1017.05 1017.18 1017.22 1017.18 1017.07 1016.90 1016.67 1016.40 1016.10 1015.77 1015.42 1015.04 1014.65 1014.23 1013.80 1013.36 1012.93 1012.52 1012.15 1011.84 1011.58 1011.40 1011.29 1011.23 1011.21 1011.21 1011.20
1011.38 1011.63 1011.90 1012.17 1012.45 1012.75 1013.07 1013.41 1013.77 1014.15 1014.56 1014.97 1015.38 1015.78 1016.14 1016.46 1016.72 1016.90 1017.01 1017.04 1017.00 1016.90 1016.74 1016.54 1016.32 1016.07 1015.81 1015.54 1015.25 1014.94 1014.62 1014.29 1013.95 1013.61 1013.30 1013.01 1012.76 1012.57 1012.44 1012.36 1012.33 1012.32 1012.32 1012.29
Thickness
5870 5857 5848 5858 5866 5862 5861 5853 5850 5859 5875 5865 5852 5847 5851 5856 5854 5847 5842 5837 5833 5830 5832 5829 5825 5821 5815 5810 5805 5801 5797 5795 5792 5789 5786 5784 5783 5784 5784 5784 5783 5781 5779 5778
5855 5849 5865 5874 5872 5865 5860 5851 5855 5865 5877 5865 5851 5846 5854 5855 5853 5851 5845 5840 5836 5832 5829 5827 5824 5820 5815 5809 5805 5801 5798 5795 5793 5791 5789 5788 5786 5785 5785 5785 5783 5782 5780 5778
5846 5859 5873 5868 5861 5855 5855 5853 5854 5853 5863 5863 5847 5834 5842 5852 5857 5855 5852 5848 5843 5836 5829 5825 5822 5819 5816 5810 5806 5803 5799 5797 5794 5793 5791 5789 5786 5784 5783 5782 5782 5782 5781 5779
5856 5867 5866 5859 5856 5855 5846 5866 5862 5856 5846 5839 5844 5813 5831 5844 5845 5848 5848 5846 5843 5840 5836 5830 5825 5820 5818 5814 5811 5806 5802 5798 5796 5794 5791 5787 5783 5780 5781 5782 5782 5782 5781 5780
5850 5860 5857 5851 5856 5859 5855 5869 5861 5854 5848 5840 5843 5823 5823 5843 5835 5840 5846 5847 5846 5843 5839 5833 5829 5825 5822 5819 5814 5809 5804 5800 5797 5794 5791 5788 5785 5784 5784 5784 5783 5781 5781 5780
5858 5871 5868 5863 5870 5871 5868 5862 5858 5856 5848 5822 5834 5823 5815 5837 5840 5842 5846 5848 5846 5845 5841 5836 5832 5828 5823 5820 5816 5811 5805 5800 5798 5795 5792 5788 5785 5784 5782 5781 5780 5779 5779 5778
5842 5856 5869 5873 5858 5865 5860 5838 5819 5813 5813 5816 5843 5832 5824 5846 5853 5850 5848 5846 5846 5845 5840 5833 5827 5824 5820 5818 5814 5811 5805 5800 5798 5795 5792 5789 5786 5784 5781 5780 5779 5778 5777 5777
5827 5830 5855 5863 5854 5845 5849 5840 5812 5795 5798 5815 5835 5825 5836 5854 5857 5858 5855 5851 5846 5841 5838 5832 5827 5823 5819 5817 5814 5810 5804 5799 5797 5794 5791 5790 5787 5784 5782 5781 5780 5779 5779 5779
5830 5830 5861 5866 5868 5857 5841 5840 5850 5828 5817 5808 5813 5825 5840 5852 5847 5847 5847 5846 5841 5839 5836 5830 5827 5822 5817 5814 5812 5809 5804 5799 5797 5794 5791 5788 5786 5784 5782 5782 5780 5780 5780 5779
5840 5825 5847 5862 5863 5860 5854 5847 5836 5819 5794 5786 5800 5808 5814 5826 5829 5834 5837 5836 5836 5835 5833 5829 5825 5821 5817 5814 5810 5807 5803 5799 5796 5793 5790 5788 5785 5784 5782 5780 5779 5778 5778 5778
5843 5823 5832 5844 5837 5835 5840 5836 5830 5823 5818 5796 5787 5801 5834 5831 5832 5831 5833 5834 5831 5830 5828 5826 5823 5820 5816 5812 5807 5802 5799 5795 5792 5791 5789 5786 5784 5782 5780 5778 5777 5776 5775 5775
5836 5825 5815 5830 5851 5856 5845 5836 5828 5808 5802 5808 5801 5807 5845 5838 5835 5832 5829 5828 5827 5826 5823 5822 5818 5814 5810 5806 5803 5798 5796 5793 5790 5788 5786 5783 5782 5780 5777 5776 5775 5774 5772 5772
5822 5810 5794 5804 5822 5834 5831 5834 5833 5827 5814 5805 5796 5805 5840 5835 5830 5826 5823 5821 5821 5820 5818 5816 5812 5807 5804 5800 5798 5794 5792 5790 5788 5785 5781 5779 5777 5776 5773 5772 5772 5771 5769 5768
5818 5805 5795 5787 5801 5818 5816 5823 5828 5819 5803 5799 5803 5805 5818 5821 5818 5817 5816 5815 5816 5813 5810 5808 5804 5800 5798 5796 5794 5790 5787 5786 5785 5781 5777 5773 5772 5771 5770 5769 5768 5767 5766 5764
5811 5795 5799 5807 5818 5821 5818 5817 5819 5813 5809 5800 5804 5805 5807 5813 5810 5809 5810 5809 5808 5805 5802 5800 5796 5793 5791 5789 5788 5786 5784 5782 5780 5776 5772 5769 5768 5767 5766 5764 5763 5763 5762 5761
5803 5788 5789 5791 5807 5812 5808 5813 5813 5811 5809 5805 5804 5800 5813 5812 5809 5804 5801 5799 5797 5795 5793 5793 5791 5787 5784 5782 5780 5779 5777 5776 5774 5770 5768 5767 5765 5763 5761 5760 5759 5758 5757 5756
5788 5780 5770 5772 5793 5795 5786 5802 5804 5803 5806 5801 5790 5795 5804 5798 5795 5794 5793 5792 5790 5789 5788 5786 5785 5782 5778 5776 5775 5772 5771 5770 5767 5765 5763 5762 5760 5758 5756 5755 5753 5751 5750 5749
5775 5768 5766 5766 5768 5750 5785 5811 5806 5799 5799 5800 5796 5794 5794 5791 5792 5793 5790 5785 5784 5783 5782 5781 5780 5777 5775 5774 5771 5768 5766 5763 5761 5758 5757 5757 5755 5753 5752 5749 5747 5745 5744 5743
5782 5764 5755 5754 5751 5759 5780 5792 5793 5783 5779 5788 5783 5781 5783 5786 5783 5779 5781 5779 5776 5777 5777 5776 5775 5773 5770 5767 5764 5761 5758 5755 5753 5751 5750 5750 5748 5746 5744 5742 5740 5739 5737 5736
5773 5764 5749 5746 5738 5737 5761 5786 5795 5781 5762 5777 5776 5771 5771 5772 5756 5755 5767 5771 5768 5769 5770 5767 5767 5764 5760 5758 5756 5751 5748 5746 5744 5744 5743 5743 5741 5739 5737 5735 5734 5734 5732 5730
5744 5743 5739 5737 5734 5745 5766 5780 5780 5747 5742 5765 5767 5764 5761 5756 5752 5755 5761 5760 5758 5758 5759 5759 5757 5754 5751 5749 5747 5742 5739 5736 5737 5737 5736 5735 5734 5732 5731 5730 5728 5727 5725 5723
5733 5731 5730 5731 5723 5728 5762 5762 5748 5742 5754 5757 5756 5755 5752 5751 5751 5750 5751 5749 5749 5747 5747 5748 5745 5742 5743 5741 5736 5732 5729 5729 5729 5728 5726 5726 5726 5726 5726 5723 5721 5719 5717 5715
5735 5734 5731 5729 5728 5740 5751 5749 5750 5752 5746 5745 5745 5745 5744 5741 5740 5740 5739 5739 5738 5737 5736 5736 5735 5733 5732 5731 5729 5723 5722 5722 5720 5719 5718 5718 5718 5718 5717 5715 5713 5712 5710 5708
5730 5736 5729 5724 5728 5735 5739 5741 5743 5741 5737 5737 5736 5737 5735 5731 5728 5728 5729 5729 5728 5726 5725 5725 5724 5722 5721 5722 5720 5718 5717 5715 5713 5710 5710 5710 5709 5708 5707 5706 5706 5704 5702 5700
5715 5717 5715 5713 5721 5725 5726 5729 5730 5731 5730 5729 5728 5728 5725 5723 5721 5720 5718 5718 5718 5717 5717 5715 5713 5711 5710 5711 5710 5710 5708 5706 5704 5703 5703 5702 5701 5699 5697 5696 5694 5694 5692 5692
5711 5708 5703 5700 5710 5709 5711 5718 5722 5720 5719 5719 5718 5716 5716 5714 5712 5711 5709 5709 5707 5707 5708 5706 5706 5703 5702 5702 5701 5700 5700 5698 5696 5695 5694 5694 5693 5691 5690 5687 5685 5682 5682 5681